SL-14 DEB

Satellite information

Favourite Embed

Satellite Type and Status

DEBRISIN ORBIT

Key statistics

Satellite SL-14 DEB at a glance.

Uptime

12443

Days in orbit

Revolutions

≈ 12.6

Per day

Orbit

LEO

Low Earth Orbit

Inclination

82.6

Latest

Satellite identification and parameters

Extended collection of information and parameters for SL-14 DEB.

Object identification

Identified? True

Debris? True

Object name: SL-14 DEB

International designator: 1991-068AQ

Object number (NORAD): 26029

Object ID (CCSDS): 26029

Country: COMMONWEALTH OF INDEPENDENT STATES (CIS)

Current information (Y/N): Y

RCS size: SMALL

Orbital parameters

Period: 114.61 minutes

Inclination: 82.5739 deg

SMA: 7815.821 km

Apoapsis: 1467.74 km

Periapsis: 1407.631 km

RAAN: 213.4094 deg

Eccentricy: 0.00384536

Argument of periapsis: 192.2691 deg

Mean anomaly: 195.6465 deg

Mean motion: 12.56437482 rev/day

Mean motion (dot): 0.00000057 rev/day2

B* drag term: 0.00028129513 1/REarth

Two-line elements (TLE)

Creation date: Oct. 21, 2025, 3:26 a.m.

Reference frame: TEME

Reference center: EARTH

Epoch: Oct. 20, 2025, 6:21 p.m. UTC

TLE line 0: 0 SL-14 DEB

TLE line 1: 1 26029U 91068AQ 25293.76472966 .00000057 00000-0 28130-3 0 9990

TLE line 2: 2 26029 82.5739 213.4094 0038454 192.2691 195.6465 12.56437482213400

Live tracking on map

Real-time ground track for satellite SL-14 DEB.

In-orbit conjunctions

A list of the most updated potential collisions computed for object SL-14 DEB.

Target Orbit TCA Probability of collision Miss distance Type
THORAD AGENA D DEB SSO 2024-10-18 07:39:22 0.0001003353 142.0 (m) DEBRIS

Associated space launch

Second generation store-dump military communications satellite

SL-14 DEB was lifted into orbit during the mission ‘Tsiklon-3 | Strela-3 67 to 72’, on board a Tsiklon-3 space rocket.

The launch took place on Sept. 28, 1991, 7:05 a.m. from 32/2.

For more information about the launch, click the button.

Launch to space Tsiklon-3 | Strela-3 67 to 72
Tsiklon-3 | Strela-3 67 to 72

Agency: N/A

Status: Launch Successful

Launch date: Sept. 28, 1991, 7:05 a.m. UTC

Rocket: Tsiklon-3

Launch pad: 32/2

Location: Plesetsk Cosmodrome, Russian Federation

...

Latest news about this satellite

There are no fresh news available about this satellite. Check back as we update our databases every day.


Newsletter sign-up

Weekly statistics, charts and insights to help you stay on top of the space industry.